loading
|

DIAMANT R/B, 2671

Orbit data source: Space-Track

DIAMANT R/B, 2671 is space debris in LEO originally from a launch on Wed, 08 Feb 1967 UTC launched from the Hamma Guira Space Track Range (HGSTR). Debris objects in space refer to the collection of defunct objects orbiting the Earth. Examples of debris include non-operational satellites, rocket bodies, and fragments generated from explosions, collisions, or faulty payload assembly.

Loading next visibility...
Loading greatness...
DIAMANT R/B details
Identifier
2671, 1967-011B
Orbit
LEO
Last TLE update11 hours ago
Origin
Flag of FRCNES (FR)
ManufacturerSud
MissionSpacecraft
Bus & MotorRUBIS, Unknown motor
Mass65 kg wet, 65 kg dry
Launch date (UTC)
1967-02-08 (58 years ago)
Launch vehicleUnknown
Launch site
Hamma Guira Space Track Range (HGSTR)
Object type
Payload
Rocket body
Debris
Shape & HBRCyl, 2.1 m
Radar Cross Section1.347 m², Large (>1 m²)

Expand to show TLE details & history

TLE from 11 hours ago
0 DIAMANT R/B
1 02671U 67011B   24284.51787387  .00003919  00000-0  77357-3 0  9991
2 02671  39.9476  50.8539 0342497 340.4753  18.3168 14.31990573967383
Epoch: 2024-10-10T12:25Z
Definitive object data (Epoch: 2024-10-10T12:25:44.302Z)
Latitude-0°
Longitude-155.18197°
Altitude552.549 km
Speed7.709 km/s
True Right ascension03h 23m 24s
True Declination0° 00' 00"
Sunlit
Object was in full shadow at TLE epoch
Predictive object data (real-time)
Latitude30.82998°
Longitude-22.59062°
Altitude980.865 km
Speed7.265 km/s
Apparent Right ascension09h 24m 33s
Apparent Declination-2° 34' 03"
Sunlit
Object is in daylight
Predictive observer data (real-time)
Local Sidereal Time17:23:12
Azimuth288.05° WNW
Elevation-24.077°
Doppler factor1
Orbital elements
Apogee1,032.859 km
Perigee542.021 km
Semi-major axis7,165.577 km
Eccentricity0.0342497
Inclination39.9476°
RAAN50.8539°
Arg. of periapsis340.4753°
True anomaly19.60228°
Mean anomaly18.3168°
Eccentric anomaly18.9542°
Mean motion3.57821 °/min
BSTAR0.00077357
Period100.61 mins
No data available

DIAMANT R/B Visibility forecast

Observer location: 39.9160978°, -105.1181434

DIAMANT R/B is not visible in the next 10 days
Span
Click to sort rows by Start time (UTC) header in descending order
Start Az.
Max El. time (UTC)
Max El. Az.
Max El.
End time (UTC)
End Az.